Regional Weather Roundup
Issued by NWS

Home | Current Version | Previous Version | Graphics & Text | Print | Product List | Glossary On
Versions: 1 2 3 4 5 6 7 8 9 10 11 12 13 14 15 16 17 18 19 20 21 22 23 24 25 26 27 28 29 30 31 32 33 34 35 36 37 38 39 40 41 42 43 44 45 46 47 48 49 50
734
ASUS43 KLMK 071410
RWRKY
KENTUCKY REGIONAL WEATHER ROUNDUP
NATIONAL WEATHER SERVICE LOUISVILLE KY
900 AM EST SUN FEB 07 2016

NOTE "FAIR" INDICATES FEW OR NO CLOUDS BELOW 12,000 FEET
WITH NO SIGNIFICANT WEATHER AND/OR OBSTRUCTIONS TO VISIBILITY.

KYZ001>023-026-027-061>063-070>075-071500-
WESTERN AND SOUTH CENTRAL KENTUCKY

CITY           SKY/WX    TMP DP  RH WIND       PRES   REMARKS
PADUCAH        SUNNY     38  23  55 SW8       30.14S WCI  32
HENDERSON      SUNNY     37  23  56 S13       30.11F WCI  29
OWENSBORO      SUNNY     36  27  70 S7        30.14F WCI  30
HOPKINSVILLE   MOSUNNY   37  23  56 S6        30.18F WCI  32
BOWLING GREEN  MOSUNNY   31  27  85 CALM      30.20F
GLASGOW        SUNNY     29  27  90 CALM      30.20S
$$

KYZ024-025-028>034-038-045-046-053-071500-
NORTH CENTRAL KENTUCKY

CITY           SKY/WX    TMP DP  RH WIND       PRES   REMARKS
LOUISVILLE/SDF CLOUDY    39  23  52 S6        30.13F WCI  35
LOUISVILLE/LOU CLOUDY    36  25  64 S6        30.14F WCI  31
FORT KNOX      MOSUNNY   35  24  64 S6        30.13F WCI  30
$$

KYZ035>037-039>044-047>052-055>060-089>105-071500-
NORTHEAST KENTUCKY

CITY           SKY/WX    TMP DP  RH WIND       PRES   REMARKS
LEXINGTON      SUNNY     34  24  67 S8        30.16S WCI  27
COVINGTON      MOSUNNY   36  23  59 S9        30.10F WCI  29
FRANKFORT      CLOUDY    33  25  72 S5        30.14F WCI  29
$$

KYZ054-064>069-076>088-106>120-071500-
SOUTHEAST KENTUCKY

CITY           SKY/WX    TMP DP  RH WIND       PRES   REMARKS
JACKSON        SUNNY     34  23  64 SW5       30.16F WCI  30
LONDON         SUNNY     28  24  85 CALM      30.18F
SOMERSET       SUNNY     28  27  93 CALM      30.22S
MIDDLESBORO    SUNNY     27  25  93 CALM      30.21F
MONTICELLO     SUNNY     32  29  88 NE7       30.22F WCI  26
$$





USA.gov is the U.S. government's official web portal to all federal, state and local government web resources and services.